DW2470 Weather Reports


time (UTC)temp
C
wind
direction
speed
KPH
gust
KPH
rain 1hr
cm
rain 24hr
cm
rain mn
cm
humidity
%
barometer
mb
20260906203008 22 126 6.4 0.0 0.00 0.00 0.00 77 1017.1
20260906201502 22 60 3.2 0.0 0.00 0.00 0.00 73 1017.1
20260906200031 22 106 4.8 0.0 0.00 0.00 0.00 72 1016.9
20260906194539 22 60 4.8 0.0 0.00 0.00 0.00 70 1016.8
20260906193100 23 135 4.8 0.0 0.00 0.00 0.00 70 1016.9
20260906191610 23 139 6.4 0.0 0.00 0.00 0.00 69 1017.0
20260906190030 23 117 6.4 0.0 0.00 0.00 0.00 70 1017.1
20260906184536 23 127 6.4 0.0 0.00 0.00 0.00 68 1017.3
20260906183032 23 100 4.8 0.0 0.00 0.00 0.00 66 1017.3
20260906181548 23 142 6.4 0.0 0.00 0.00 0.00 66 1017.5
20260906180027 24 104 3.2 0.0 0.00 0.00 0.00 65 1017.5
20260906174521 23 110 3.2 0.0 0.00 0.00 0.00 67 1017.5
20260906173020 23 103 3.2 0.0 0.00 0.00 0.00 68 1017.6
20260906171513 22 150 4.8 0.0 0.00 0.00 0.00 68 1017.9
20260906170019 22 92 1.6 0.0 0.00 0.00 0.00 67 1018.2
20260906164512 22 96 3.2 0.0 0.00 0.00 0.00 69 1018.4
20260906163007 22 98 3.2 0.0 0.00 0.00 0.00 68 1018.4
20260906161509 22 130 4.8 0.0 0.00 0.00 0.00 70 1018.4
20260906160001 21 124 3.2 0.0 0.00 0.00 0.00 70 1018.4
20260906154559 21 126 1.6 0.0 0.00 0.00 0.00 71 1018.2
20260906153056 21 121 3.2 0.0 0.00 0.00 0.00 71 1018.3
20260906151550 20 115 3.2 0.0 0.00 0.00 0.00 75 1018.3
20260906150051 20 58 1.6 0.0 0.00 0.00 0.00 77 1018.2
20260906144544 19 48 1.6 0.0 0.00 0.00 0.00 79 1018.3
20260906143048 18 140 1.6 0.0 0.00 0.00 0.00 83 1018.5
20260906141505 17 140 1.6 0.0 0.00 0.00 0.00 85 1018.7
20260906140007 17 141 1.6 0.0 0.00 0.00 0.00 91 1018.4
20260906134605 16 140 3.2 0.0 0.00 0.00 0.00 94 1018.6
20260906133054 15 141 1.6 0.0 0.00 0.00 0.00 97 1018.8
20260906131548 14 141 0.0 0.0 0.00 0.00 0.00 98 1018.6
20260906130047 13 141 0.0 0.0 0.00 0.00 0.00 97 1018.6
20260906124539 13 141 0.0 0.0 0.00 0.00 0.00 97 1018.6
20260906123036 12 142 0.0 0.0 0.00 0.00 0.00 97 1018.6
20260906121534 12 142 0.0 0.0 0.00 0.00 0.00 97 1018.4
20260906120032 11 142 0.0 0.0 0.00 0.00 0.00 97 1018.1
20260906114507 11 141 0.0 0.0 0.00 0.00 0.00 96 1017.9
20260906113002 11 141 0.0 0.0 0.00 0.00 0.00 96 1017.7
20260906111600 11 141 0.0 0.0 0.00 0.00 0.00 97 1017.7
20260906110058 11 141 0.0 0.0 0.00 0.00 0.00 96 1017.4
20260906104558 11 142 0.0 0.0 0.00 0.00 0.00 96 1017.4
20260906103057 11 141 0.0 0.0 0.00 0.00 0.00 96 1017.3
20260906101601 11 141 0.0 0.0 0.00 0.00 0.00 96 1017.2
20260906100053 11 141 0.0 0.0 0.00 0.00 0.00 96 1017.1
20260906094554 11 141 0.0 0.0 0.00 0.00 0.00 96 1017.3
20260906093051 11 142 0.0 0.0 0.00 0.00 0.00 96 1017.4
20260906091550 11 142 0.0 0.0 0.00 0.00 0.00 95 1017.4
20260906090047 11 141 0.0 0.0 0.00 0.00 0.00 95 1017.4
20260906084545 11 141 0.0 0.0 0.00 0.00 0.00 95 1017.6
20260906083045 11 141 0.0 0.0 0.00 0.00 0.00 95 1017.5
20260906081543 11 141 0.0 0.0 0.00 0.00 0.00 95 1017.5
20260906080042 11 141 0.0 0.0 0.00 0.00 0.00 95 1017.3
20260906074544 11 141 0.0 0.0 0.00 0.00 0.00 95 1017.4
20260906073043 12 141 0.0 0.0 0.00 0.00 0.00 95 1017.5
20260906071506 12 141 0.0 0.0 0.00 0.00 0.00 94 1017.8
20260906070005 12 141 0.0 0.0 0.00 0.00 0.00 94 1017.9
20260906064505 12 141 0.0 0.0 0.00 0.00 0.00 94 1018.1
20260906063001 12 141 0.0 0.0 0.00 0.00 0.00 94 1017.9
20260906061600 12 141 0.0 0.0 0.00 0.00 0.00 94 1018.0
20260906060145 12 141 0.0 0.0 0.00 0.00 0.00 94 1018.1
20260906054559 12 141 0.0 0.0 0.00 0.00 0.00 94 1017.8
20260906053055 12 141 0.0 0.0 0.00 0.00 0.00 93 1017.9
20260906051554 12 141 0.0 0.0 0.00 0.00 0.00 93 1017.9
20260906050110 12 141 0.0 0.0 0.00 0.00 0.00 93 1017.5
20260906044552 12 141 0.0 0.0 0.00 0.00 0.00 93 1017.5
20260906043051 13 141 0.0 0.0 0.00 0.00 0.00 92 1017.4
20260906041551 13 141 0.0 0.0 0.00 0.00 0.00 91 1017.3
20260906040051 13 141 0.0 0.0 0.00 0.00 0.00 90 1017.3
20260906034557 14 141 0.0 0.0 0.00 0.00 0.00 89 1017.2
20260906033047 15 141 0.0 0.0 0.00 0.00 0.00 88 1017.1
20260906031609 15 141 0.0 0.0 0.00 0.00 0.00 87 1017.0
20260906030050 15 141 0.0 0.0 0.00 0.00 0.00 87 1016.8
20260906024554 15 141 0.0 0.0 0.00 0.00 0.00 87 1016.7
20260906023104 15 141 0.0 0.0 0.00 0.00 0.00 87 1016.8
20260906021544 15 141 0.0 0.0 0.00 0.00 0.00 87 1016.6
20260906020050 15 141 0.0 0.0 0.00 0.00 0.00 87 1016.6
20260906014543 15 141 0.0 0.0 0.00 0.00 0.00 87 1016.5
20260906013013 15 141 0.0 0.0 0.00 0.00 0.00 87 1016.4
20260906011512 15 141 0.0 0.0 0.00 0.00 0.00 87 1016.1
20260906010009 16 141 0.0 0.0 0.00 0.00 0.00 86 1016.1
20260906004509 16 141 0.0 0.0 0.00 0.00 0.00 84 1016.2
20260906003008 17 141 0.0 0.0 0.00 0.00 0.00 82 1015.9
20260906001508 17 140 0.0 0.0 0.00 0.00 0.00 80 1015.8
20260906000037 18 142 0.0 0.0 0.00 0.00 0.00 78 1016.0
20260905234536 18 143 1.6 0.0 0.00 0.00 0.00 77 1016.0
20260905233043 19 141 0.0 0.0 0.00 0.00 0.00 75 1016.1
20260905231537 20 144 1.6 0.0 0.00 0.00 0.00 75 1016.0
20260905230034 20 146 1.6 0.0 0.00 0.00 0.00 73 1016.4
20260905224533 20 146 1.6 0.0 0.00 0.00 0.00 69 1016.3
20260905223031 21 63 3.2 0.0 0.00 0.00 0.00 68 1016.4
20260905221530 21 58 3.2 0.0 0.00 0.00 0.00 67 1016.4
20260905220031 21 146 4.8 0.0 0.00 0.00 0.00 68 1016.5
20260905214529 21 145 4.8 0.0 0.00 0.00 0.00 68 1016.5
20260905213059 21 145 1.6 0.0 0.00 0.00 0.00 68 1016.7
20260905211559 21 145 6.4 0.0 0.00 0.00 0.00 68 1016.5
20260905210106 21 142 4.8 0.0 0.00 0.00 0.00 67 1016.6
20260905204556 21 108 4.8 0.0 0.00 0.00 0.00 67 1016.6